Flag for Guyana Weather past 2 weeks in Georgetown, Guyana

Now
79 °F

Partly sunny.


Feels Like: 82 °F
Forecast: 77 / 82 °F
Wind: 5 mph from Northeast

Location: Georgetown/Cheddi Jagan International Airport

Current Time: Mar 29, 2015 at 8:31:40 AM

Latest Report: Mar 29, 2015 at 8:00 AM


Visibility: N/A

Pressure: 30.01 "Hg

Humidity: 84%

Dew point: 73 °F

Location of GeorgetownLocation

Historic Weather in Georgetown — Graph

°F

Georgetown temperature yesterday

Maximum temperature yesterday: 86 °F (at 11:00 AM)
Minimum temperature yesterday: 68 °F (at 6:00 AM)
Average temperature yesterday: 77 °F

Past Weeks' High & Low Weather Summary

 TemperatureHumidityPressure
High90 °F (Mar 21, 1:00 PM)100% (Mar 14, 7:00 AM)30.04 "Hg (Mar 14, 7:00 AM)
Low66 °F (Mar 23, 6:00 AM)46% (Mar 23, 2:00 PM)29.80 "Hg (Mar 14, 3:00 PM)
Average79 °F83%29.92 "Hg
* Reported Mar 14 7:00 AM — Mar 29 7:00 AM, Georgetown, Weather by CustomWeather, © 2015

Note: Actual official high and low records may vary slightly from our data, if they occured in-between our weather recording intervals... More about our weather records

Advertising

Georgetown weather history for previous 24 hours

 ConditionsComfort  
Time TempWeatherWind HumidityBarometerVisibility
7:00 AM
Sun, Mar 29
75 °FPartly sunny.No wind94%30.01 "Hg6 mi
6:00 AM73 °FPartly sunny.2 mph100%29.98 "Hg6 mi
5:00 AM73 °FPassing clouds.5 mph100%29.95 "Hg6 mi
4:00 AM73 °FPartly cloudy.No wind100%29.92 "Hg6 mi
3:00 AM73 °FPassing clouds.2 mph100%29.92 "HgN/A
12:00 AM75 °FPassing clouds.5 mph94%29.98 "HgN/A
11:00 PM
Sat, Mar 28
75 °FPassing clouds.5 mph94%30.01 "HgN/A
10:00 PM75 °FPassing clouds.2 mph94%30.01 "HgN/A
9:00 PM75 °FPassing clouds.5 mph94%29.98 "HgN/A
8:00 PM75 °FPassing clouds.5 mph94%29.98 "HgN/A
7:00 PM75 °FPassing clouds.5 mph94%29.95 "HgN/A
6:00 PM77 °FPartly sunny.5 mph89%29.95 "HgN/A
5:00 PM79 °FRain showers. Broken clouds.7 mph74%29.95 "Hg5 mi
4:00 PM79 °FBroken clouds.7 mph79%29.95 "HgN/A
3:00 PM79 °FBroken clouds.9 mph84%29.95 "HgN/A
2:00 PM79 °FRain showers. Broken clouds.14 mph89%29.98 "Hg6 mi
1:00 PM84 °FScattered clouds.18 mph66%29.98 "HgN/A
12:00 PM86 °FScattered clouds.12 mph62%30.01 "HgN/A
11:00 AM86 °FPartly sunny.9 mph62%30.04 "HgN/A
10:00 AM84 °FScattered clouds.9 mph66%30.04 "HgN/A
9:00 AM82 °FScattered clouds.12 mph74%30.04 "HgN/A
8:00 AM79 °FPassing clouds.No wind84%30.04 "HgN/A
Weather by CustomWeather, © 2015

See weather overviewHow to use our weather pages